Location: Lichtensteig
(47.3376°N, 9.0841°E)
Time: 19:22:21
(UTC+00:00)

FENGYUN 1C DEB - Pass Details

Date: 22 September 2021
Orbit: 837 x 877 km, 98.7° (Epoch: 18 October)

Event Time Altitude Azimuth Distance (km) Brightness Sun altitude
Rises 18:35:53 0° 190° (S) 3,448 ? -13.3°
Reaches altitude 10° 18:38:28 10° 199° (SSW) 2,519 ? -13.8°
Maximum altitude 18:43:34 35° 264° (W) 1,385 ? -14.6°
Drops below altitude 10° 18:48:43 10° 330° (NNW) 2,542 ? -15.4°
Sets 18:51:20 0° 339° (NNW) 3,484 ? -15.9°
